Time,TemperatureF,DewpointF,PressureIn,WindDirection,WindDirectionDegrees,WindSpeedMPH,WindSpeedGustMPH,Humidity,HourlyPrecipIn,Conditions,Clouds,dailyrainin,SolarRadiationWatts/m^2,SoftwareType,DateUTC
2013-03-07 00:04:00,36.3,30.1,30.02,NNW,339,1.0,6.0,78,0.00,RA,,0.00,0.0,WeatherDisplay:10.37,2013-03-07 05:04:00,
2013-03-07 00:09:00,36.8,29.9,30.02,NNW,337,2.0,7.0,76,0.00,OVC,,0.00,0.0,WeatherDisplay:10.37,2013-03-07 05:09:00,
2013-03-07 00:14:00,36.7,29.8,30.02,NNW,327,1.0,4.0,76,0.00,OVC,,0.00,0.0,WeatherDisplay:10.37,2013-03-07 05:14:00,
2013-03-07 00:19:00,35.8,29.6,30.02,NNW,327,0.0,4.0,78,0.00,BKN,,0.00,0.0,WeatherDisplay:10.37,2013-03-07 05:19:00,
2013-03-07 00:24:00,35.5,29.4,30.02,NNW,329,3.0,5.0,78,0.00,BKN,,0.00,0.0,WeatherDisplay:10.37,2013-03-07 05:24:00,
2013-03-07 00:29:00,35.6,29.7,30.02,NNW,348,1.0,5.0,79,0.00,BKN,,0.00,0.0,WeatherDisplay:10.37,2013-03-07 05:29:00,
2013-03-07 00:34:00,35.3,29.4,30.02,NNW,346,1.0,3.0,79,0.00,BKN,,0.00,0.0,WeatherDisplay:10.37,2013-03-07 05:34:00,
2013-03-07 00:39:00,35.2,29.3,30.02,NW,316,0.0,3.0,79,0.01,RA,,0.01,0.0,WeatherDisplay:10.37,2013-03-07 05:39:00,
2013-03-07 00:44:00,34.5,28.7,30.02,NNW,336,0.0,3.0,79,0.00,RA,,0.01,0.0,WeatherDisplay:10.37,2013-03-07 05:44:00,
2013-03-07 00:49:00,33.6,28.7,30.03,North,4,1.0,2.0,82,0.00,BKN,,0.01,0.0,WeatherDisplay:10.37,2013-03-07 05:49:00,
2013-03-07 00:54:00,33.4,28.7,30.03,North,4,0.0,2.0,83,0.00,BKN,,0.01,0.0,WeatherDisplay:10.37,2013-03-07 05:54:00,
2013-03-07 00:59:00,33.4,28.5,30.03,North,4,1.0,2.0,82,0.00,BKN,,0.01,0.0,WeatherDisplay:10.37,2013-03-07 05:59:00,
2013-03-07 01:04:00,33.4,28.8,30.03,NNW,339,0.0,5.0,83,0.00,FEW,,0.01,0.0,WeatherDisplay:10.37,2013-03-07 06:04:00,
2013-03-07 01:09:00,32.8,28.5,30.03,NW,314,0.0,2.0,84,0.00,FEW,,0.01,0.0,WeatherDisplay:10.37,2013-03-07 06:09:00,
2013-03-07 01:14:00,32.5,28.5,30.03,NW,315,0.0,1.0,85,0.00,FEW,,0.01,0.0,WeatherDisplay:10.37,2013-03-07 06:14:00,
2013-03-07 01:19:00,32.1,28.1,30.03,NW,315,0.0,1.0,85,0.00,FEW,,0.01,0.0,WeatherDisplay:10.37,2013-03-07 06:19:00,
2013-03-07 01:24:00,32.0,28.0,30.03,NW,315,0.0,1.0,85,0.00,FEW,,0.01,0.0,WeatherDisplay:10.37,2013-03-07 06:24:00,
2013-03-07 01:29:00,31.9,27.9,30.03,NNW,342,1.0,4.0,85,0.00,FEW,,0.01,0.0,WeatherDisplay:10.37,2013-03-07 06:29:00,
2013-03-07 01:34:00,31.5,27.5,30.03,North,5,0.0,1.0,85,0.00,FEW,,0.01,0.0,WeatherDisplay:10.37,2013-03-07 06:34:00,
2013-03-07 01:39:00,31.8,28.1,30.03,North,2,1.0,6.0,86,0.00,FEW,,0.01,0.0,WeatherDisplay:10.37,2013-03-07 06:39:00,
2013-03-07 01:44:00,32.0,28.0,30.04,NW,321,0.0,6.0,85,0.00,FEW,,0.01,0.0,WeatherDisplay:10.37,2013-03-07 06:44:00,
2013-03-07 01:49:00,31.0,27.3,30.04,NW,316,1.0,3.0,86,0.00,FEW,,0.01,0.0,WeatherDisplay:10.37,2013-03-07 06:49:00,
2013-03-07 01:54:00,31.1,27.7,30.03,North,349,0.0,3.0,87,0.00,FEW,,0.01,0.0,WeatherDisplay:10.37,2013-03-07 06:54:00,
2013-03-07 01:59:00,30.6,27.2,30.03,North,10,1.0,4.0,87,0.00,FEW,,0.01,0.0,WeatherDisplay:10.37,2013-03-07 06:59:00,
2013-03-07 02:04:00,30.2,27.1,30.03,North,11,0.0,2.0,88,0.00,FEW,,0.01,0.0,WeatherDisplay:10.37,2013-03-07 07:04:00,
2013-03-07 02:09:00,30.0,27.2,30.03,NNE,13,2.0,4.0,89,0.00,FEW,,0.01,0.0,WeatherDisplay:10.37,2013-03-07 07:09:00,
2013-03-07 02:14:00,30.2,27.3,30.03,NNE,21,0.0,3.0,89,0.00,FEW,,0.01,0.0,WeatherDisplay:10.37,2013-03-07 07:14:00,
2013-03-07 02:19:00,30.1,27.3,30.03,NNE,25,0.0,1.0,89,0.00,BKN,,0.01,0.0,WeatherDisplay:10.37,2013-03-07 07:19:00,
2013-03-07 02:24:00,29.9,27.3,30.03,NNE,25,1.0,6.0,90,0.00,BKN,,0.01,0.0,WeatherDisplay:10.37,2013-03-07 07:24:00,
2013-03-07 02:29:00,30.7,28.1,30.03,NNW,348,1.0,6.0,90,0.00,BKN,,0.01,0.0,WeatherDisplay:10.37,2013-03-07 07:29:00,
2013-03-07 02:34:00,30.4,27.5,30.03,NNW,335,0.0,2.0,89,0.00,BKN,,0.01,0.0,WeatherDisplay:10.37,2013-03-07 07:34:00,
2013-03-07 02:39:00,30.4,27.8,30.03,NNW,341,0.0,2.0,90,0.00,BKN,,0.01,0.0,WeatherDisplay:10.37,2013-03-07 07:39:00,
2013-03-07 02:49:00,31.0,28.4,30.04,NNW,344,0.0,3.0,90,0.00,BKN,,0.01,0.0,WeatherDisplay:10.37,2013-03-07 07:49:00,
2013-03-07 02:54:00,31.1,28.2,30.04,NNW,343,0.0,3.0,89,0.00,BKN,,0.01,0.0,WeatherDisplay:10.37,2013-03-07 07:54:00,
2013-03-07 02:59:00,31.2,28.6,30.04,North,357,0.0,3.0,90,0.00,BKN,,0.01,0.0,WeatherDisplay:10.37,2013-03-07 07:59:00,
2013-03-07 03:04:00,31.3,28.7,30.04,North,6,0.0,1.0,90,0.00,OVC,,0.01,0.0,WeatherDisplay:10.37,2013-03-07 08:04:00,
2013-03-07 03:09:00,31.4,28.5,30.04,North,6,1.0,2.0,89,0.00,OVC,,0.01,0.0,WeatherDisplay:10.37,2013-03-07 08:09:00,
2013-03-07 03:19:00,31.9,29.0,30.04,NNE,24,2.0,9.0,89,0.00,OVC,,0.01,0.0,WeatherDisplay:10.37,2013-03-07 08:19:00,
2013-03-07 03:24:00,33.1,29.7,30.04,NNW,347,1.0,9.0,87,0.00,OVC,,0.01,0.0,WeatherDisplay:10.37,2013-03-07 08:24:00,
2013-03-07 03:29:00,33.1,29.4,30.04,NNW,335,1.0,3.0,86,0.00,OVC,,0.01,0.0,WeatherDisplay:10.37,2013-03-07 08:29:00,
2013-03-07 03:34:00,33.4,29.4,30.04,North,355,0.0,3.0,85,0.00,OVC,,0.01,0.0,WeatherDisplay:10.37,2013-03-07 08:34:00,
2013-03-07 03:39:00,33.9,29.6,30.04,North,6,5.0,12.0,84,0.00,OVC,,0.01,0.0,WeatherDisplay:10.37,2013-03-07 08:39:00,
2013-03-07 03:44:00,34.6,29.4,30.04,NNW,329,1.0,6.0,81,0.00,OVC,,0.01,0.0,WeatherDisplay:10.37,2013-03-07 08:44:00,
2013-03-07 03:49:00,34.6,29.1,30.05,NW,322,3.0,5.0,80,0.00,OVC,,0.01,0.0,WeatherDisplay:10.37,2013-03-07 08:49:00,
2013-03-07 03:54:00,35.6,28.5,30.05,NNW,334,1.0,6.0,75,0.00,OVC,,0.01,0.0,WeatherDisplay:10.37,2013-03-07 08:54:00,
2013-03-07 03:59:00,36.0,28.2,30.05,NNW,328,0.0,6.0,73,0.00,OVC,,0.01,0.0,WeatherDisplay:10.37,2013-03-07 08:59:00,
2013-03-07 04:04:00,36.3,27.5,30.05,NNW,341,6.0,9.0,70,0.00,OVC,,0.01,0.0,WeatherDisplay:10.37,2013-03-07 09:04:00,
2013-03-07 04:09:00,36.6,27.4,30.05,North,351,3.0,6.0,69,0.00,OVC,,0.01,0.0,WeatherDisplay:10.37,2013-03-07 09:09:00,
2013-03-07 04:14:00,36.7,27.5,30.05,NNW,335,5.0,10.0,69,0.00,OVC,,0.01,0.0,WeatherDisplay:10.37,2013-03-07 09:14:00,
2013-03-07 04:19:00,37.0,27.4,30.05,NNW,332,5.0,12.0,68,0.00,OVC,,0.01,0.0,WeatherDisplay:10.37,2013-03-07 09:19:00,
2013-03-07 04:24:00,36.9,27.7,30.05,NNW,327,2.0,7.0,69,0.00,OVC,,0.01,0.0,WeatherDisplay:10.37,2013-03-07 09:24:00,
2013-03-07 04:29:00,36.9,27.3,30.05,NW,320,6.0,8.0,68,0.00,OVC,,0.01,0.0,WeatherDisplay:10.37,2013-03-07 09:29:00,
2013-03-07 04:39:00,36.7,27.5,30.05,NNW,331,2.0,4.0,69,0.00,OVC,,0.01,0.0,WeatherDisplay:10.37,2013-03-07 09:39:00,
2013-03-07 04:44:00,36.9,27.3,30.06,NNW,335,5.0,8.0,68,0.00,OVC,,0.01,0.0,WeatherDisplay:10.37,2013-03-07 09:44:00,
2013-03-07 04:49:00,37.0,27.1,30.06,NNW,340,1.0,6.0,67,0.00,OVC,,0.01,0.0,WeatherDisplay:10.37,2013-03-07 09:49:00,
2013-03-07 04:54:00,36.8,27.2,30.06,NNW,331,3.0,8.0,68,0.00,OVC,,0.01,0.0,WeatherDisplay:10.37,2013-03-07 09:54:00,
2013-03-07 04:59:00,36.9,27.3,30.06,NW,323,5.0,8.0,68,0.00,OVC,,0.01,0.0,WeatherDisplay:10.37,2013-03-07 09:59:00,
2013-03-07 05:04:00,36.9,27.4,30.06,NNW,328,2.0,5.0,68,0.00,OVC,,0.01,0.0,WeatherDisplay:10.37,2013-03-07 10:04:00,
2013-03-07 05:14:00,37.1,27.1,30.06,NW,316,2.0,6.0,67,0.00,OVC,,0.01,0.0,WeatherDisplay:10.37,2013-03-07 10:14:00,
2013-03-07 05:19:00,37.0,27.0,30.06,NNW,337,5.0,7.0,67,0.00,BKN,,0.01,0.0,WeatherDisplay:10.37,2013-03-07 10:19:00,
2013-03-07 05:24:00,36.9,27.0,30.06,NNW,331,2.0,5.0,67,0.00,BKN,,0.01,0.0,WeatherDisplay:10.37,2013-03-07 10:24:00,
2013-03-07 05:29:00,36.9,26.6,30.06,NNW,328,9.0,14.0,66,0.00,BKN,,0.01,0.0,WeatherDisplay:10.37,2013-03-07 10:29:00,
2013-03-07 05:34:00,37.1,26.4,30.06,NW,322,6.0,10.0,65,0.00,BKN,,0.01,0.0,WeatherDisplay:10.37,2013-03-07 10:34:00,
2013-03-07 05:44:00,37.1,26.4,30.06,NNW,338,2.0,7.0,65,0.00,BKN,,0.01,0.0,WeatherDisplay:10.37,2013-03-07 10:44:00,
2013-03-07 05:49:00,37.1,26.4,30.06,North,1,5.0,10.0,65,0.00,BKN,,0.01,0.0,WeatherDisplay:10.37,2013-03-07 10:49:00,
2013-03-07 05:54:00,36.9,26.6,30.06,North,355,6.0,13.0,66,0.00,BKN,,0.01,0.0,WeatherDisplay:10.37,2013-03-07 10:54:00,
2013-03-07 05:59:00,36.9,26.2,30.06,NNW,332,5.0,13.0,65,0.00,BKN,,0.01,0.0,WeatherDisplay:10.37,2013-03-07 10:59:00,
2013-03-07 06:04:00,36.9,26.6,30.06,NNW,328,8.0,12.0,66,0.00,BKN,,0.01,0.0,WeatherDisplay:10.37,2013-03-07 11:04:00,
2013-03-07 06:09:00,36.8,26.5,30.06,NNW,331,6.0,8.0,66,0.00,BKN,,0.01,0.0,WeatherDisplay:10.37,2013-03-07 11:09:00,
2013-03-07 06:14:00,36.8,26.9,30.07,NNW,340,6.0,9.0,67,0.00,BKN,,0.01,0.0,WeatherDisplay:10.37,2013-03-07 11:14:00,
2013-03-07 06:19:00,36.8,26.9,30.07,NNW,332,7.0,9.0,67,0.00,BKN,,0.01,0.0,WeatherDisplay:10.37,2013-03-07 11:19:00,
2013-03-07 06:24:00,36.9,27.0,30.07,NNW,329,5.0,10.0,67,0.00,BKN,,0.01,0.0,WeatherDisplay:10.37,2013-03-07 11:24:00,
2013-03-07 06:29:00,36.8,26.9,30.07,NNW,336,6.0,12.0,67,0.00,BKN,,0.01,0.0,WeatherDisplay:10.37,2013-03-07 11:29:00,
2013-03-07 06:34:00,36.7,26.4,30.07,NNW,337,3.0,7.0,66,0.00,BKN,,0.01,5.0,WeatherDisplay:10.37,2013-03-07 11:34:00,
2013-03-07 06:39:00,36.6,26.3,30.07,NNW,335,3.0,8.0,66,0.00,BKN,,0.01,7.0,WeatherDisplay:10.37,2013-03-07 11:39:00,
2013-03-07 06:44:00,36.4,26.1,30.07,NNW,341,3.0,9.0,66,0.00,BKN,,0.01,11.0,WeatherDisplay:10.37,2013-03-07 11:44:00,
2013-03-07 06:49:00,36.0,26.1,30.07,North,350,1.0,5.0,67,0.00,BKN,,0.01,14.0,WeatherDisplay:10.37,2013-03-07 11:49:00,
2013-03-07 06:59:00,35.6,25.4,30.07,NNW,327,5.0,6.0,66,0.00,BKN,,0.01,23.0,WeatherDisplay:10.37,2013-03-07 11:59:00,
2013-03-07 07:09:00,35.6,25.8,30.08,NW,311,2.0,5.0,67,0.00,BKN,,0.01,44.0,WeatherDisplay:10.37,2013-03-07 12:09:00,
2013-03-07 07:14:00,35.6,25.7,30.08,NW,314,1.0,2.0,67,0.00,BKN,,0.01,54.0,WeatherDisplay:10.37,2013-03-07 12:14:00,
2013-03-07 07:19:00,35.6,25.8,30.08,NW,305,1.0,3.0,67,0.00,CLR,,0.01,63.0,WeatherDisplay:10.37,2013-03-07 12:19:00,
2013-03-07 07:24:00,35.7,26.2,30.08,WNW,285,1.0,2.0,68,0.00,CLR,,0.01,123.0,WeatherDisplay:10.37,2013-03-07 12:24:00,
2013-03-07 07:29:00,36.1,26.2,30.08,WNW,285,1.0,4.0,67,0.00,CLR,,0.01,162.0,WeatherDisplay:10.37,2013-03-07 12:29:00,
2013-03-07 07:34:00,36.5,26.2,30.09,West,279,2.0,5.0,66,0.00,CLR,,0.01,169.0,WeatherDisplay:10.37,2013-03-07 12:34:00,
2013-03-07 07:39:00,36.6,26.3,30.09,West,276,1.0,6.0,66,0.00,CLR,,0.01,172.0,WeatherDisplay:10.37,2013-03-07 12:39:00,
2013-03-07 07:44:00,36.6,26.3,30.09,West,276,2.0,5.0,66,0.00,CLR,,0.01,188.0,WeatherDisplay:10.37,2013-03-07 12:44:00,
2013-03-07 07:49:00,36.8,26.1,30.09,West,272,1.0,5.0,65,0.00,CLR,,0.01,204.0,WeatherDisplay:10.37,2013-03-07 12:49:00,
2013-03-07 07:54:00,36.6,25.9,30.10,West,273,1.0,3.0,65,0.00,CLR,,0.01,220.0,WeatherDisplay:10.37,2013-03-07 12:54:00,
2013-03-07 07:59:00,36.7,26.0,30.10,West,269,2.0,5.0,65,0.00,CLR,,0.01,236.0,WeatherDisplay:10.37,2013-03-07 12:59:00,
2013-03-07 08:09:00,36.8,26.1,30.10,West,270,3.0,6.0,65,0.00,CLR,,0.01,267.0,WeatherDisplay:10.37,2013-03-07 13:09:00,
2013-03-07 08:14:00,37.1,26.1,30.10,West,271,2.0,4.0,64,0.00,CLR,,0.01,285.0,WeatherDisplay:10.37,2013-03-07 13:14:00,
2013-03-07 08:19:00,37.4,26.0,30.11,WNW,282,1.0,4.0,63,0.00,SCT,,0.01,299.0,WeatherDisplay:10.37,2013-03-07 13:19:00,
2013-03-07 08:24:00,37.7,26.2,30.11,WNW,285,2.0,5.0,63,0.00,SCT,,0.01,315.0,WeatherDisplay:10.37,2013-03-07 13:24:00,
2013-03-07 08:29:00,37.8,26.3,30.11,West,279,3.0,6.0,63,0.01,RA,,0.02,330.0,WeatherDisplay:10.37,2013-03-07 13:29:00,
2013-03-07 08:39:00,38.1,26.2,30.11,WNW,295,2.0,6.0,62,0.00,SCT,,0.02,362.0,WeatherDisplay:10.37,2013-03-07 13:39:00,
2013-03-07 08:44:00,38.4,26.1,30.11,WNW,295,6.0,8.0,61,0.00,SCT,,0.02,378.0,WeatherDisplay:10.37,2013-03-07 13:44:00,
2013-03-07 08:49:00,38.6,26.7,30.11,WNW,297,2.0,6.0,62,0.00,SCT,,0.02,392.0,WeatherDisplay:10.37,2013-03-07 13:49:00,
2013-03-07 08:54:00,38.7,26.4,30.11,NW,304,2.0,5.0,61,0.00,SCT,,0.02,406.0,WeatherDisplay:10.37,2013-03-07 13:54:00,
2013-03-07 08:59:00,39.0,26.7,30.11,NW,310,2.0,6.0,61,0.00,SCT,,0.02,420.0,WeatherDisplay:10.37,2013-03-07 13:59:00,
2013-03-07 09:04:00,39.2,26.9,30.11,WNW,301,5.0,10.0,61,0.00,SCT,,0.02,434.0,WeatherDisplay:10.37,2013-03-07 14:04:00,
2013-03-07 09:14:00,39.8,26.6,30.11,WNW,295,3.0,8.0,59,0.01,RA,,0.03,464.0,WeatherDisplay:10.37,2013-03-07 14:14:00,
2013-03-07 09:19:00,40.1,26.9,30.11,WNW,297,5.0,7.0,59,0.00,RA,,0.03,478.0,WeatherDisplay:10.37,2013-03-07 14:19:00,
2013-03-07 09:24:00,40.1,26.9,30.11,WNW,303,5.0,9.0,59,0.00,SCT,,0.03,490.0,WeatherDisplay:10.37,2013-03-07 14:24:00,
2013-03-07 09:29:00,40.2,27.0,30.11,WNW,302,7.0,12.0,59,0.00,SCT,,0.03,503.0,WeatherDisplay:10.37,2013-03-07 14:29:00,
2013-03-07 09:34:00,40.3,27.1,30.12,WNW,303,8.0,12.0,59,0.00,SCT,,0.03,515.0,WeatherDisplay:10.37,2013-03-07 14:34:00,
2013-03-07 09:39:00,40.5,26.9,30.12,NW,313,3.0,10.0,58,0.00,SCT,,0.03,527.0,WeatherDisplay:10.37,2013-03-07 14:39:00,
2013-03-07 09:49:00,40.7,27.5,30.12,WNW,296,7.0,12.0,59,0.00,SCT,,0.03,552.0,WeatherDisplay:10.37,2013-03-07 14:49:00,
2013-03-07 09:54:00,41.0,26.9,30.12,WNW,297,7.0,13.0,57,0.01,RA,,0.04,573.0,WeatherDisplay:10.37,2013-03-07 14:54:00,
2013-03-07 09:59:00,40.8,26.7,30.12,WNW,299,7.0,15.0,57,0.00,RA,,0.04,585.0,WeatherDisplay:10.37,2013-03-07 14:59:00,
2013-03-07 10:04:00,41.0,26.9,30.12,WNW,298,5.0,16.0,57,0.00,SCT,,0.04,589.0,WeatherDisplay:10.37,2013-03-07 15:04:00,
2013-03-07 10:09:00,41.2,26.7,30.12,NNW,328,7.0,14.0,56,0.00,SCT,,0.04,613.0,WeatherDisplay:10.37,2013-03-07 15:09:00,
2013-03-07 10:14:00,41.3,26.8,30.12,NNW,331,6.0,12.0,56,0.00,SCT,,0.04,615.0,WeatherDisplay:10.37,2013-03-07 15:14:00,
2013-03-07 10:19:00,41.5,26.9,30.12,WNW,297,6.0,12.0,56,0.00,FEW,,0.04,675.0,WeatherDisplay:10.37,2013-03-07 15:19:00,
2013-03-07 10:24:00,41.5,27.0,30.12,WNW,293,7.0,12.0,56,0.00,FEW,,0.04,636.0,WeatherDisplay:10.37,2013-03-07 15:24:00,
2013-03-07 10:29:00,41.5,26.9,30.12,WNW,295,9.0,14.0,56,0.00,FEW,,0.04,694.0,WeatherDisplay:10.37,2013-03-07 15:29:00,
2013-03-07 10:34:00,41.4,26.8,30.12,NW,305,8.0,13.0,56,0.00,FEW,,0.04,682.0,WeatherDisplay:10.37,2013-03-07 15:34:00,
2013-03-07 10:39:00,41.7,26.7,30.12,NW,313,6.0,12.0,55,0.00,FEW,,0.04,682.0,WeatherDisplay:10.37,2013-03-07 15:39:00,
2013-03-07 10:44:00,42.2,27.1,30.12,NW,309,5.0,12.0,55,0.00,FEW,,0.04,747.0,WeatherDisplay:10.37,2013-03-07 15:44:00,
2013-03-07 10:49:00,42.6,27.1,30.12,WNW,302,9.0,14.0,54,0.01,RA,,0.05,904.0,WeatherDisplay:10.37,2013-03-07 15:49:00,
2013-03-07 10:54:00,42.3,26.8,30.12,NW,309,6.0,12.0,54,0.00,RA,,0.05,849.0,WeatherDisplay:10.37,2013-03-07 15:54:00,
2013-03-07 10:59:00,42.2,27.2,30.12,NW,308,7.0,10.0,55,0.00,FEW,,0.05,338.0,WeatherDisplay:10.37,2013-03-07 15:59:00,
2013-03-07 11:04:00,42.2,27.2,30.12,WNW,302,5.0,13.0,55,0.00,FEW,,0.05,399.0,WeatherDisplay:10.37,2013-03-07 16:04:00,
2013-03-07 11:09:00,42.2,26.7,30.11,WNW,303,6.0,12.0,54,0.00,FEW,,0.05,366.0,WeatherDisplay:10.37,2013-03-07 16:09:00,
2013-03-07 11:19:00,42.3,27.3,30.12,WNW,295,3.0,10.0,55,0.00,OVC,,0.05,415.0,WeatherDisplay:10.37,2013-03-07 16:19:00,
2013-03-07 11:29:00,42.7,27.2,30.12,WNW,297,6.0,13.0,54,0.00,OVC,,0.05,1143.0,WeatherDisplay:10.37,2013-03-07 16:29:00,
2013-03-07 11:34:00,42.7,27.2,30.12,NW,304,8.0,12.0,54,0.01,RA,,0.06,425.0,WeatherDisplay:10.37,2013-03-07 16:34:00,
2013-03-07 11:39:00,42.4,27.4,30.12,NW,309,7.0,12.0,55,0.00,RA,,0.06,341.0,WeatherDisplay:10.37,2013-03-07 16:39:00,
2013-03-07 11:44:00,42.5,27.0,30.12,NW,311,7.0,10.0,54,0.00,OVC,,0.06,313.0,WeatherDisplay:10.37,2013-03-07 16:44:00,
2013-03-07 11:49:00,43.0,27.5,30.12,NW,308,7.0,12.0,54,0.00,OVC,,0.06,450.0,WeatherDisplay:10.37,2013-03-07 16:49:00,
2013-03-07 11:59:00,42.7,27.2,30.12,WNW,296,8.0,13.0,54,0.00,OVC,,0.06,315.0,WeatherDisplay:10.37,2013-03-07 16:59:00,
2013-03-07 12:04:00,42.3,27.7,30.12,WNW,296,6.0,12.0,56,0.00,OVC,,0.06,334.0,WeatherDisplay:10.37,2013-03-07 17:04:00,
2013-03-07 12:09:00,42.4,27.8,30.12,WNW,298,8.0,12.0,56,0.00,OVC,,0.06,504.0,WeatherDisplay:10.37,2013-03-07 17:09:00,
2013-03-07 12:14:00,42.8,28.1,30.12,WNW,302,8.0,12.0,56,0.00,OVC,,0.06,445.0,WeatherDisplay:10.37,2013-03-07 17:14:00,
2013-03-07 12:19:00,42.9,27.4,30.12,WNW,303,8.0,13.0,54,0.00,OVC,,0.06,415.0,WeatherDisplay:10.37,2013-03-07 17:19:00,
2013-03-07 12:24:00,43.0,27.5,30.12,WNW,300,9.0,13.0,54,0.00,OVC,,0.06,387.0,WeatherDisplay:10.37,2013-03-07 17:24:00,
2013-03-07 12:29:00,43.0,27.5,30.12,WNW,300,8.0,16.0,54,0.00,OVC,,0.06,452.0,WeatherDisplay:10.37,2013-03-07 17:29:00,
2013-03-07 12:34:00,42.9,27.8,30.11,WNW,303,10.0,13.0,55,0.00,OVC,,0.06,397.0,WeatherDisplay:10.37,2013-03-07 17:34:00,
2013-03-07 12:39:00,42.9,27.4,30.11,NW,305,9.0,12.0,54,0.00,OVC,,0.06,401.0,WeatherDisplay:10.37,2013-03-07 17:39:00,
2013-03-07 12:49:00,43.0,28.4,30.11,WNW,296,5.0,12.0,56,0.00,OVC,,0.06,517.0,WeatherDisplay:10.37,2013-03-07 17:49:00,
2013-03-07 12:54:00,43.1,28.5,30.11,WNW,299,5.0,9.0,56,0.00,OVC,,0.06,406.0,WeatherDisplay:10.37,2013-03-07 17:54:00,
2013-03-07 12:59:00,43.2,28.5,30.11,WNW,298,6.0,12.0,56,0.00,OVC,,0.06,476.0,WeatherDisplay:10.37,2013-03-07 17:59:00,
2013-03-07 13:09:00,42.8,28.6,30.11,WNW,291,6.0,12.0,57,0.00,OVC,,0.06,253.0,WeatherDisplay:10.37,2013-03-07 18:09:00,
2013-03-07 13:19:00,43.6,28.9,30.11,WNW,296,5.0,13.0,56,0.00,OVC,,0.06,380.0,WeatherDisplay:10.37,2013-03-07 18:19:00,
2013-03-07 13:29:00,43.4,28.7,30.10,WNW,296,7.0,9.0,56,0.00,OVC,,0.06,329.0,WeatherDisplay:10.37,2013-03-07 18:29:00,
2013-03-07 13:34:00,43.2,28.5,30.10,WNW,297,6.0,13.0,56,0.00,OVC,,0.06,352.0,WeatherDisplay:10.37,2013-03-07 18:34:00,
2013-03-07 13:39:00,44.0,29.3,30.10,WNW,298,8.0,12.0,56,0.00,OVC,,0.06,1090.0,WeatherDisplay:10.37,2013-03-07 18:39:00,
2013-03-07 13:44:00,43.9,29.2,30.10,WNW,291,7.0,12.0,56,0.00,OVC,,0.06,359.0,WeatherDisplay:10.37,2013-03-07 18:44:00,
2013-03-07 13:59:00,43.8,29.1,30.10,WNW,303,6.0,10.0,56,0.00,OVC,,0.06,424.0,WeatherDisplay:10.37,2013-03-07 18:59:00,
2013-03-07 14:09:00,43.6,28.9,30.09,WNW,300,8.0,13.0,56,0.00,OVC,,0.06,404.0,WeatherDisplay:10.37,2013-03-07 19:09:00,
2013-03-07 14:14:00,43.7,29.5,30.09,WNW,299,9.0,15.0,57,0.00,OVC,,0.06,659.0,WeatherDisplay:10.37,2013-03-07 19:14:00,
2013-03-07 14:29:00,43.9,30.0,30.10,WNW,299,8.0,16.0,58,0.00,OVC,,0.06,589.0,WeatherDisplay:10.37,2013-03-07 19:29:00,
2013-03-07 14:39:00,44.2,29.9,30.10,WNW,298,6.0,9.0,57,0.00,OVC,,0.06,621.0,WeatherDisplay:10.37,2013-03-07 19:39:00,
2013-03-07 14:44:00,44.5,30.6,30.10,WNW,302,5.0,9.0,58,0.00,OVC,,0.06,258.0,WeatherDisplay:10.37,2013-03-07 19:44:00,
2013-03-07 14:49:00,43.5,29.7,30.10,WNW,290,8.0,14.0,58,0.00,OVC,,0.06,172.0,WeatherDisplay:10.37,2013-03-07 19:49:00,
2013-03-07 14:54:00,43.4,30.4,30.10,WNW,284,7.0,14.0,60,0.00,OVC,,0.06,362.0,WeatherDisplay:10.37,2013-03-07 19:54:00,
2013-03-07 14:59:00,43.6,30.2,30.10,WNW,293,9.0,14.0,59,0.00,OVC,,0.06,163.0,WeatherDisplay:10.37,2013-03-07 19:59:00,
2013-03-07 15:04:00,43.7,29.9,30.10,WNW,299,7.0,12.0,58,0.00,OVC,,0.06,213.0,WeatherDisplay:10.37,2013-03-07 20:04:00,
2013-03-07 15:09:00,43.5,29.7,30.10,WNW,297,6.0,13.0,58,0.00,OVC,,0.06,359.0,WeatherDisplay:10.37,2013-03-07 20:09:00,
2013-03-07 15:19:00,43.0,29.7,30.10,WNW,298,8.0,13.0,59,0.00,SCT,,0.06,162.0,WeatherDisplay:10.37,2013-03-07 20:19:00,
2013-03-07 15:24:00,43.0,29.2,30.10,NW,310,9.0,16.0,58,0.00,SCT,,0.06,171.0,WeatherDisplay:10.37,2013-03-07 20:24:00,
2013-03-07 15:39:00,43.1,30.6,30.10,NW,304,6.0,10.0,61,0.00,SCT,,0.06,415.0,WeatherDisplay:10.37,2013-03-07 20:39:00,
2013-03-07 15:44:00,43.4,30.8,30.10,WNW,294,6.0,12.0,61,0.00,SCT,,0.06,408.0,WeatherDisplay:10.37,2013-03-07 20:44:00,
2013-03-07 15:54:00,44.0,30.6,30.10,WNW,293,6.0,10.0,59,0.00,SCT,,0.06,450.0,WeatherDisplay:10.37,2013-03-07 20:54:00,
2013-03-07 15:59:00,44.0,30.2,30.10,NW,305,7.0,12.0,58,0.00,SCT,,0.06,141.0,WeatherDisplay:10.37,2013-03-07 20:59:00,
2013-03-07 16:09:00,43.2,29.8,30.10,WNW,302,8.0,12.0,59,0.00,BKN,,0.06,120.0,WeatherDisplay:10.37,2013-03-07 21:09:00,
2013-03-07 16:19:00,43.1,30.6,30.10,WNW,298,8.0,12.0,61,0.00,BKN,,0.06,265.0,WeatherDisplay:10.37,2013-03-07 21:19:00,
2013-03-07 16:24:00,43.5,30.5,30.10,WNW,295,7.0,14.0,60,0.00,BKN,,0.06,352.0,WeatherDisplay:10.37,2013-03-07 21:24:00,
2013-03-07 16:34:00,43.3,31.5,30.10,WNW,293,3.0,9.0,63,0.00,BKN,,0.06,257.0,WeatherDisplay:10.37,2013-03-07 21:34:00,
2013-03-07 16:39:00,43.5,31.7,30.11,WNW,301,2.0,9.0,63,0.00,BKN,,0.06,241.0,WeatherDisplay:10.37,2013-03-07 21:39:00,
2013-03-07 16:44:00,43.2,31.4,30.11,WNW,297,6.0,14.0,63,0.00,BKN,,0.06,86.0,WeatherDisplay:10.37,2013-03-07 21:44:00,
2013-03-07 16:49:00,42.7,30.9,30.11,WNW,294,3.0,12.0,63,0.00,BKN,,0.06,91.0,WeatherDisplay:10.37,2013-03-07 21:49:00,
2013-03-07 16:54:00,42.5,31.2,30.11,WNW,301,5.0,10.0,64,0.00,BKN,,0.06,167.0,WeatherDisplay:10.37,2013-03-07 21:54:00,
2013-03-07 17:04:00,42.5,30.8,30.11,WNW,296,7.0,12.0,63,0.00,FEW,,0.06,65.0,WeatherDisplay:10.37,2013-03-07 22:04:00,
2013-03-07 17:09:00,42.5,30.8,30.11,WNW,301,5.0,10.0,63,0.00,FEW,,0.06,69.0,WeatherDisplay:10.37,2013-03-07 22:09:00,
2013-03-07 17:14:00,42.5,30.8,30.11,NW,309,5.0,12.0,63,0.00,FEW,,0.06,83.0,WeatherDisplay:10.37,2013-03-07 22:14:00,
2013-03-07 17:19:00,42.6,31.3,30.11,WNW,301,6.0,10.0,64,0.00,FEW,,0.06,79.0,WeatherDisplay:10.37,2013-03-07 22:19:00,
2013-03-07 17:24:00,42.5,30.7,30.12,WNW,300,6.0,12.0,63,0.00,FEW,,0.06,67.0,WeatherDisplay:10.37,2013-03-07 22:24:00,
2013-03-07 17:29:00,42.2,30.9,30.12,NW,309,7.0,13.0,64,0.00,FEW,,0.06,69.0,WeatherDisplay:10.37,2013-03-07 22:29:00,
2013-03-07 17:39:00,42.1,30.4,30.12,WNW,296,5.0,10.0,63,0.00,FEW,,0.06,40.0,WeatherDisplay:10.37,2013-03-07 22:39:00,
2013-03-07 17:44:00,41.9,30.2,30.12,NW,307,8.0,14.0,63,0.00,FEW,,0.06,26.0,WeatherDisplay:10.37,2013-03-07 22:44:00,
2013-03-07 17:49:00,41.9,30.2,30.13,NW,304,6.0,13.0,63,0.00,FEW,,0.06,19.0,WeatherDisplay:10.37,2013-03-07 22:49:00,
2013-03-07 17:59:00,41.6,30.7,30.13,NW,321,6.0,17.0,65,0.00,FEW,,0.06,16.0,WeatherDisplay:10.37,2013-03-07 22:59:00,
2013-03-07 18:04:00,41.5,30.6,30.13,NNW,327,3.0,10.0,65,0.00,FEW,,0.06,7.0,WeatherDisplay:10.37,2013-03-07 23:04:00,
2013-03-07 18:09:00,41.4,30.5,30.14,NW,317,3.0,7.0,65,0.00,FEW,,0.06,0.0,WeatherDisplay:10.37,2013-03-07 23:09:00,
2013-03-07 18:19:00,40.9,30.4,30.14,WNW,303,1.0,4.0,66,0.00,FEW,,0.06,0.0,WeatherDisplay:10.37,2013-03-07 23:19:00,
2013-03-07 18:29:00,40.2,30.5,30.14,NW,320,1.0,4.0,68,0.00,FEW,,0.06,0.0,WeatherDisplay:10.37,2013-03-07 23:29:00,
2013-03-07 18:34:00,39.9,30.5,30.14,WNW,300,3.0,7.0,69,0.00,FEW,,0.06,0.0,WeatherDisplay:10.37,2013-03-07 23:34:00,
2013-03-07 18:44:00,39.9,30.5,30.14,WNW,283,0.0,4.0,69,0.00,FEW,,0.06,0.0,WeatherDisplay:10.37,2013-03-07 23:44:00,
2013-03-07 18:54:00,39.4,30.4,30.14,WSW,255,1.0,3.0,70,0.01,RA,,0.07,0.0,WeatherDisplay:10.37,2013-03-07 23:54:00,
2013-03-07 18:59:00,39.3,30.7,30.15,WSW,257,0.0,2.0,71,0.00,RA,,0.07,0.0,WeatherDisplay:10.37,2013-03-07 23:59:00,
2013-03-07 19:04:00,39.1,30.5,30.15,WSW,257,1.0,2.0,71,0.00,FEW,,0.07,0.0,WeatherDisplay:10.37,2013-03-08 00:04:00,
2013-03-07 19:09:00,38.7,30.5,30.15,WSW,257,1.0,2.0,72,0.00,FEW,,0.07,0.0,WeatherDisplay:10.37,2013-03-08 00:09:00,
2013-03-07 19:14:00,38.4,30.5,30.15,WSW,254,1.0,3.0,73,0.00,FEW,,0.07,0.0,WeatherDisplay:10.37,2013-03-08 00:14:00,
2013-03-07 19:19:00,38.5,30.6,30.15,SE,124,0.0,5.0,73,0.00,OVC,,0.07,0.0,WeatherDisplay:10.37,2013-03-08 00:19:00,
2013-03-07 19:24:00,38.3,30.8,30.15,ESE,121,1.0,3.0,74,0.00,OVC,,0.07,0.0,WeatherDisplay:10.37,2013-03-08 00:24:00,
2013-03-07 19:34:00,38.0,30.8,30.16,SW,227,2.0,4.0,75,0.00,OVC,,0.07,0.0,WeatherDisplay:10.37,2013-03-08 00:34:00,
2013-03-07 19:39:00,38.0,30.8,30.16,SW,218,0.0,2.0,75,0.00,OVC,,0.07,0.0,WeatherDisplay:10.37,2013-03-08 00:39:00,
2013-03-07 19:44:00,37.8,30.6,30.16,SSW,213,0.0,2.0,75,0.00,OVC,,0.07,0.0,WeatherDisplay:10.37,2013-03-08 00:44:00,
2013-03-07 19:59:00,37.7,30.8,30.16,SW,229,0.0,2.0,76,0.00,OVC,,0.07,0.0,WeatherDisplay:10.37,2013-03-08 00:59:00,
2013-03-07 20:04:00,37.7,30.5,30.16,SW,234,1.0,3.0,75,0.00,OVC,,0.07,0.0,WeatherDisplay:10.37,2013-03-08 01:04:00,
2013-03-07 20:09:00,37.7,30.8,30.16,West,275,2.0,5.0,76,0.00,OVC,,0.07,0.0,WeatherDisplay:10.37,2013-03-08 01:09:00,
2013-03-07 20:14:00,37.6,30.7,30.16,WNW,297,1.0,5.0,76,0.00,OVC,,0.07,0.0,WeatherDisplay:10.37,2013-03-08 01:14:00,
2013-03-07 20:19:00,37.4,30.5,30.16,WNW,302,2.0,4.0,76,0.00,OVC,,0.07,0.0,WeatherDisplay:10.37,2013-03-08 01:19:00,
2013-03-07 20:24:00,37.1,30.6,30.16,WNW,303,2.0,4.0,77,0.00,OVC,,0.07,0.0,WeatherDisplay:10.37,2013-03-08 01:24:00,
2013-03-07 20:29:00,36.8,30.3,30.16,WNW,302,5.0,8.0,77,0.00,OVC,,0.07,0.0,WeatherDisplay:10.37,2013-03-08 01:29:00,
2013-03-07 20:34:00,37.0,30.4,30.16,WNW,303,1.0,2.0,77,0.00,OVC,,0.07,0.0,WeatherDisplay:10.37,2013-03-08 01:34:00,
2013-03-07 20:39:00,36.8,30.3,30.16,WNW,302,2.0,5.0,77,0.00,OVC,,0.07,0.0,WeatherDisplay:10.37,2013-03-08 01:39:00,
2013-03-07 20:44:00,37.0,30.4,30.16,WNW,301,3.0,5.0,77,0.00,OVC,,0.07,0.0,WeatherDisplay:10.37,2013-03-08 01:44:00,
2013-03-07 20:49:00,36.8,30.3,30.16,WNW,297,2.0,4.0,77,0.00,OVC,,0.07,0.0,WeatherDisplay:10.37,2013-03-08 01:49:00,
2013-03-07 20:54:00,37.0,30.4,30.16,WNW,296,3.0,4.0,77,0.00,OVC,,0.07,0.0,WeatherDisplay:10.37,2013-03-08 01:54:00,
2013-03-07 20:59:00,37.0,30.5,30.16,WNW,286,2.0,5.0,77,0.00,OVC,,0.07,0.0,WeatherDisplay:10.37,2013-03-08 01:59:00,
2013-03-07 21:04:00,36.9,30.4,30.16,West,275,2.0,4.0,77,0.00,OVC,,0.07,0.0,WeatherDisplay:10.37,2013-03-08 02:04:00,
2013-03-07 21:09:00,36.9,30.4,30.16,West,274,1.0,3.0,77,0.00,OVC,,0.07,0.0,WeatherDisplay:10.37,2013-03-08 02:09:00,
2013-03-07 21:14:00,36.9,30.1,30.16,West,280,3.0,5.0,76,0.00,OVC,,0.07,0.0,WeatherDisplay:10.37,2013-03-08 02:14:00,
2013-03-07 21:24:00,37.1,29.9,30.16,WNW,297,2.0,5.0,75,0.00,CLR,,0.07,0.0,WeatherDisplay:10.37,2013-03-08 02:24:00,
2013-03-07 21:29:00,37.2,30.0,30.16,NW,307,0.0,2.0,75,0.00,CLR,,0.07,0.0,WeatherDisplay:10.37,2013-03-08 02:29:00,
2013-03-07 21:34:00,36.8,29.6,30.16,NW,311,0.0,2.0,75,0.00,CLR,,0.07,0.0,WeatherDisplay:10.37,2013-03-08 02:34:00,
2013-03-07 21:39:00,36.5,29.6,30.16,NW,322,1.0,5.0,76,0.00,CLR,,0.07,0.0,WeatherDisplay:10.37,2013-03-08 02:39:00,
2013-03-07 21:44:00,36.6,29.7,30.16,NW,315,2.0,6.0,76,0.00,CLR,,0.07,0.0,WeatherDisplay:10.37,2013-03-08 02:44:00,
2013-03-07 21:54:00,36.7,29.8,30.16,NW,312,0.0,4.0,76,0.00,CLR,,0.07,0.0,WeatherDisplay:10.37,2013-03-08 02:54:00,
2013-03-07 21:59:00,36.6,29.4,30.16,NW,309,1.0,2.0,75,0.00,CLR,,0.07,0.0,WeatherDisplay:10.37,2013-03-08 02:59:00,
2013-03-07 22:04:00,36.5,29.6,30.16,NW,306,0.0,3.0,76,0.00,CLR,,0.07,0.0,WeatherDisplay:10.37,2013-03-08 03:04:00,
2013-03-07 22:09:00,36.5,29.7,30.16,WNW,300,0.0,4.0,76,0.00,CLR,,0.07,0.0,WeatherDisplay:10.37,2013-03-08 03:09:00,
2013-03-07 22:14:00,36.3,29.5,30.15,WNW,294,0.0,2.0,76,0.00,CLR,,0.07,0.0,WeatherDisplay:10.37,2013-03-08 03:14:00,
2013-03-07 22:19:00,36.1,29.3,30.16,WNW,300,1.0,6.0,76,0.00,CLR,,0.07,0.0,WeatherDisplay:10.37,2013-03-08 03:19:00,
2013-03-07 22:24:00,36.1,29.0,30.16,NW,316,2.0,7.0,75,0.00,CLR,,0.07,0.0,WeatherDisplay:10.37,2013-03-08 03:24:00,
2013-03-07 22:29:00,36.1,28.9,30.16,NW,323,1.0,3.0,75,0.00,CLR,,0.07,0.0,WeatherDisplay:10.37,2013-03-08 03:29:00,
2013-03-07 22:34:00,36.1,28.7,30.16,NW,323,1.0,5.0,74,0.00,CLR,,0.07,0.0,WeatherDisplay:10.37,2013-03-08 03:34:00,
2013-03-07 22:39:00,35.9,28.4,30.16,NW,320,1.0,3.0,74,0.00,CLR,,0.07,0.0,WeatherDisplay:10.37,2013-03-08 03:39:00,
2013-03-07 22:44:00,35.8,28.3,30.16,NW,318,3.0,5.0,74,0.00,CLR,,0.07,0.0,WeatherDisplay:10.37,2013-03-08 03:44:00,
2013-03-07 22:49:00,36.0,28.5,30.16,NW,312,1.0,4.0,74,0.00,CLR,,0.07,0.0,WeatherDisplay:10.37,2013-03-08 03:49:00,
2013-03-07 22:54:00,35.6,28.1,30.16,NW,309,1.0,2.0,74,0.00,CLR,,0.07,0.0,WeatherDisplay:10.37,2013-03-08 03:54:00,
2013-03-07 22:59:00,35.7,28.2,30.16,NW,323,2.0,4.0,74,0.00,CLR,,0.07,0.0,WeatherDisplay:10.37,2013-03-08 03:59:00,
2013-03-07 23:04:00,35.8,28.0,30.16,NNW,341,1.0,7.0,73,0.00,CLR,,0.07,0.0,WeatherDisplay:10.37,2013-03-08 04:04:00,
2013-03-07 23:09:00,35.8,28.0,30.16,NNW,328,1.0,3.0,73,0.00,CLR,,0.07,0.0,WeatherDisplay:10.37,2013-03-08 04:09:00,
2013-03-07 23:14:00,35.2,27.8,30.16,WNW,301,0.0,1.0,74,0.00,CLR,,0.07,0.0,WeatherDisplay:10.37,2013-03-08 04:14:00,
2013-03-07 23:24:00,35.0,27.5,30.16,NW,319,2.0,4.0,74,0.00,CLR,,0.07,0.0,WeatherDisplay:10.37,2013-03-08 04:24:00,
2013-03-07 23:29:00,34.9,27.5,30.16,NNW,330,2.0,5.0,74,0.00,CLR,,0.07,0.0,WeatherDisplay:10.37,2013-03-08 04:29:00,
2013-03-07 23:34:00,34.9,27.5,30.16,NW,324,0.0,3.0,74,0.00,CLR,,0.07,0.0,WeatherDisplay:10.37,2013-03-08 04:34:00,
2013-03-07 23:39:00,35.1,27.6,30.16,NW,323,1.0,3.0,74,0.00,CLR,,0.07,0.0,WeatherDisplay:10.37,2013-03-08 04:39:00,
2013-03-07 23:44:00,34.9,27.4,30.16,NW,323,0.0,3.0,74,0.00,CLR,,0.07,0.0,WeatherDisplay:10.37,2013-03-08 04:44:00,
2013-03-07 23:49:00,34.5,27.4,30.16,NW,323,0.0,3.0,75,0.00,CLR,,0.07,0.0,WeatherDisplay:10.37,2013-03-08 04:49:00,
2013-03-07 23:54:00,34.0,27.3,30.16,NW,321,2.0,4.0,76,0.00,CLR,,0.07,0.0,WeatherDisplay:10.37,2013-03-08 04:54:00,
2013-03-07 23:59:00,34.3,27.5,30.16,NNW,327,3.0,4.0,76,0.00,RA,,0.00,0.0,WeatherDisplay:10.37,2013-03-08 04:59:00,